Zurück zum Katalog

CZ-4 DEB

AktivSSO
NORAD 27482·DEBRIS·🇨🇳 China

Gestartet Sep 3, 1990 von Taiyuan Satellite Launch Center

Loading…

Nächste Überflüge (nächste 24 Stunden)

TLE

AktuellSource: Space-Track

Epoche: Sep 14, 2026, 10:45 UTC

1 27482U 90081CU  26257.44824843  .00000256  00000-0  16301-3 0  9997
2 27482  98.8921 239.6952 0010375  55.5217  96.8081 14.12306068317586

Verfolge CZ-4 DEB in Echtzeit mit AllMySat

Download on the App Store